{"data":{"norad_id":47845,"intl_designator":"2021-018BL","name":"STARLINK-2453","alt_names":[],"object_type":"PAYLOAD","status":"ACTIVE","operator":null,"country":"US","launch_date":"2021-03-11","launch_site_code":"AFETR","launch_vehicle":null,"mission":null,"orbit_class":"UNKNOWN","rcs_meters":null,"size_class":null,"mass_kg":null,"dimensions":null,"purposes":["comms"],"wikipedia_slug":null,"has_3d_model":false,"image_url":null,"decayed_at":null,"tle_current":{"epoch":"2026-05-25T01:27:15.438240Z","epoch_age_seconds":73027,"freshness":"FRESH","line1":"1 47845U 21018BL  26145.06059535  .00001839  00000+0  74197-4 0  9993","line2":"2 47845  53.1615 263.3455 0001077  88.7797 271.3327 15.30197954288197","mean_motion":15.30197954,"eccentricity":0.0001077,"inclination_deg":53.1615,"raan_deg":263.3455,"arg_perigee_deg":88.7797,"mean_anomaly_deg":271.3327,"bstar":7.4197e-5,"rev_number":28819,"period_min":94.105471532999,"perigee_km":474.48307173752,"apogee_km":475.95928508915,"semimajor_km":6853.3581784133,"source":"CELESTRAK","updated_at":"2026-05-25T13:38:16.609054Z"}}}